Find Starlink 31344

NORAD ID: 59171 Int'l Des: 2024-044 Owner: SPXS Country: US Constellation: starlink operational
LEOCIRCULAR

实时位置

正在加载3D地球...

关于 Starlink 31344

正在加载描述...

即将过境

Passes for default location (London). Set your location on the main map for personalized predictions.

高度历史

Loading altitude history...

两行轨道根数

1 59171U 24044V 26129.70311525 -.00000272 00000-0 -36772-6 0 9995
2 59171 43.0039 122.7236 0001417 275.3434 84.7256 15.27573039122928
Epoch: May 9, 2026 • Age: 9 hours

当前状态

高度 491.5 km
速度 7.62 km/s
星下点 -32.83°S, 90.23°E
发射日期 Mar 4, 2024
运行时间 2.1 years
类型 internet

技术详情

分类 Payload
质量 730.00 kg
干质量 700.00 kg
总质量 730.00 kg
长度 0.30 m
直径 4.10 m
跨度 29.00 m
形状 Box + pan
制造商 SPXS
平台类型 Starlink V2M
阶段状态 In Orbit
所有者/国家 SPXS/US

Most Searched